When you browse on this site, cookies collect data to enhance your experience and personalize the content and advertising you see.
Visit our Privacy Policy to learn more. By continuing to use the site, you agree to this use of cookies and data.
  • In Austria
  • List of Countries
  • For 7 days
  • Water Temperature
  • Weather Map
  • News
  • Weather Widgets
  • user-avatar
    Login

    Hourly Weather Kopylniki

    Today, 15 December, Sunday

    Time Temperature Precipitation Wind Pressure Humidity
    00:00 -2°C° 0 mm 4 mps 736 mmHg 87%
    01:00 -2°C° 0 mm 4 mps 736 mmHg 87%
    02:00 -2°C° 0 mm 4 mps 735 mmHg 87%
    03:00 -2°C° 0.2 mm 4 mps 735 mmHg 90%
    04:00 -2°C° 0.2 mm 4 mps 734 mmHg 92%
    05:00 -2°C° 0.2 mm 4 mps 734 mmHg 95%
    06:00 -1°C° 0.2 mm 4 mps 733 mmHg 95%
    07:00 -1°C° 0.2 mm 4 mps 733 mmHg 95%
    08:00 0°C° 0.2 mm 4 mps 733 mmHg 95%
    09:00 0°C° 0.7 mm 4 mps 732 mmHg 95%
    10:00 +1°C° 0.7 mm 4 mps 732 mmHg 95%
    11:00 +1°C° 0.7 mm 4 mps 732 mmHg 95%
    12:00 +1°C° 0.5 mm 4 mps 732 mmHg 95%
    13:00 +1°C° 0.5 mm 4 mps 732 mmHg 95%
    14:00 +1°C° 0.5 mm 4 mps 732 mmHg 95%
    15:00 0°C° 0 mm 4 mps 733 mmHg 94%
    16:00 0°C° 0 mm 4 mps 733 mmHg 94%
    17:00 0°C° 0 mm 4 mps 733 mmHg 93%
    18:00 0°C° 0 mm 4 mps 734 mmHg 91%
    19:00 0°C° 0 mm 4 mps 734 mmHg 90%
    20:00 0°C° 0 mm 4 mps 735 mmHg 88%
    21:00 -1°C° 0 mm 4 mps 735 mmHg 90%
    22:00 0°C° 0 mm 3 mps 736 mmHg 91%
    23:00 -1°C° 0 mm 3 mps 736 mmHg 93%

    Tomorrow, 16 December, Monday

    Time Temperature Precipitation Wind Pressure Humidity
    00:00 -1°C° 0 mm 3 mps 736 mmHg 92%
    01:00 -1°C° 0 mm 3 mps 736 mmHg 91%
    02:00 -1°C° 0 mm 3 mps 736 mmHg 90%
    03:00 -1°C° 0.1 mm 4 mps 736 mmHg 91%
    04:00 -1°C° 0.1 mm 4 mps 735 mmHg 93%
    05:00 0°C° 0.1 mm 4 mps 735 mmHg 94%
    06:00 0°C° 0 mm 4 mps 735 mmHg 93%
    07:00 0°C° 0 mm 4 mps 735 mmHg 92%
    08:00 +1°C° 0 mm 4 mps 735 mmHg 90%
    09:00 +1°C° 0 mm 5 mps 736 mmHg 88%
    10:00 +1°C° 0 mm 5 mps 736 mmHg 85%
    11:00 +1°C° 0 mm 6 mps 736 mmHg 82%
    12:00 +1°C° 0.1 mm 6 mps 736 mmHg 84%
    13:00 +1°C° 0.1 mm 6 mps 736 mmHg 87%
    14:00 0°C° 0.1 mm 7 mps 736 mmHg 89%
    15:00 +1°C° 0 mm 6 mps 737 mmHg 84%
    16:00 +1°C° 0 mm 6 mps 738 mmHg 79%
    17:00 +1°C° 0 mm 6 mps 738 mmHg 74%
    18:00 +1°C° 0 mm 5 mps 739 mmHg 75%
    19:00 +1°C° 0 mm 5 mps 740 mmHg 76%
    20:00 +1°C° 0 mm 4 mps 740 mmHg 78%
    21:00 0°C° 0 mm 4 mps 741 mmHg 82%
    22:00 +1°C° 0 mm 3 mps 741 mmHg 86%
    23:00 0°C° 0 mm 3 mps 742 mmHg 91%

    Day after tomorrow, 17 December, Tuesday

    Time Temperature Precipitation Wind Pressure Humidity
    00:00 0°C° 0 mm 3 mps 742 mmHg 92%
    01:00 0°C° 0 mm 3 mps 742 mmHg 92%
    02:00 -1°C° 0 mm 2 mps 743 mmHg 93%
    03:00 -1°C° 0 mm 3 mps 742 mmHg 91%
    04:00 0°C° 0 mm 3 mps 742 mmHg 89%
    05:00 0°C° 0 mm 3 mps 742 mmHg 88%
    06:00 0°C° 0.1 mm 3 mps 741 mmHg 87%
    07:00 0°C° 0.1 mm 3 mps 741 mmHg 86%
    08:00 0°C° 0.1 mm 3 mps 741 mmHg 86%
    09:00 0°C° 0.6 mm 4 mps 740 mmHg 88%
    10:00 0°C° 0.6 mm 4 mps 740 mmHg 90%
    11:00 +1°C° 0.6 mm 4 mps 740 mmHg 93%
    12:00 +1°C° 0.6 mm 4 mps 740 mmHg 93%
    13:00 +1°C° 0.6 mm 4 mps 739 mmHg 94%
    14:00 +1°C° 0.6 mm 4 mps 739 mmHg 95%
    15:00 +2°C° 0.3 mm 3 mps 739 mmHg 95%
    16:00 +2°C° 0.3 mm 3 mps 739 mmHg 95%
    17:00 +2°C° 0.3 mm 3 mps 740 mmHg 95%
    18:00 +2°C° 0.2 mm 3 mps 740 mmHg 95%
    19:00 +3°C° 0.2 mm 2 mps 740 mmHg 96%
    20:00 +3°C° 0.2 mm 2 mps 740 mmHg 96%
    21:00 +3°C° 0 mm 2 mps 740 mmHg 97%
    22:00 +3°C° 0 mm 2 mps 741 mmHg 97%
    23:00 +3°C° 0 mm 2 mps 741 mmHg 97%

    18 December, Wednesday

    Time Temperature Precipitation Wind Pressure Humidity
    00:00 +4°C° 0 mm 1 mps 741 mmHg 97%
    01:00 +4°C° 0 mm 1 mps 741 mmHg 98%
    02:00 +4°C° 0 mm 1 mps 741 mmHg 98%
    03:00 +4°C° 0 mm 1 mps 741 mmHg 98%
    04:00 +3°C° 0 mm 2 mps 741 mmHg 98%
    05:00 +3°C° 0 mm 2 mps 741 mmHg 97%
    06:00 +3°C° 0 mm 2 mps 740 mmHg 97%
    07:00 +3°C° 0 mm 2 mps 740 mmHg 96%
    08:00 +3°C° 0 mm 2 mps 740 mmHg 96%
    09:00 +2°C° 0 mm 3 mps 740 mmHg 95%
    10:00 +2°C° 0 mm 3 mps 740 mmHg 94%
    11:00 +2°C° 0 mm 3 mps 740 mmHg 92%
    12:00 +2°C° 0 mm 3 mps 739 mmHg 92%
    13:00 +3°C° 0 mm 3 mps 739 mmHg 91%
    14:00 +3°C° 0 mm 3 mps 739 mmHg 91%
    15:00 +3°C° 0 mm 3 mps 739 mmHg 91%
    16:00 +2°C° 0 mm 3 mps 739 mmHg 92%
    17:00 +2°C° 0 mm 3 mps 739 mmHg 93%
    18:00 +2°C° 0 mm 3 mps 738 mmHg 93%
    19:00 +2°C° 0 mm 3 mps 738 mmHg 93%
    20:00 +2°C° 0 mm 3 mps 738 mmHg 93%
    21:00 +1°C° 0 mm 4 mps 738 mmHg 93%
    22:00 +3°C° 0 mm 4 mps 738 mmHg 92%
    23:00 +3°C° 0 mm 4 mps 738 mmHg 92%

    19 December, Thursday

    Time Temperature Precipitation Wind Pressure Humidity
    00:00 +3°C° 0 mm 4 mps 737 mmHg 92%
    01:00 +3°C° 0 mm 4 mps 737 mmHg 92%
    02:00 +3°C° 0 mm 4 mps 737 mmHg 91%
    03:00 +2°C° 0 mm 5 mps 737 mmHg 90%
    04:00 +2°C° 0 mm 5 mps 737 mmHg 88%
    05:00 +3°C° 0 mm 5 mps 737 mmHg 87%
    06:00 +4°C° 0 mm 4 mps 737 mmHg 86%
    07:00 +3°C° 0 mm 4 mps 738 mmHg 84%
    08:00 +3°C° 0 mm 4 mps 738 mmHg 83%
    09:00 +3°C° 0 mm 4 mps 739 mmHg 81%
    10:00 +1°C° 0 mm 4 mps 739 mmHg 80%
    11:00 +1°C° 0 mm 4 mps 740 mmHg 78%
    12:00 +2°C° 0 mm 3 mps 740 mmHg 78%
    13:00 +2°C° 0 mm 3 mps 740 mmHg 78%
    14:00 +2°C° 0 mm 2 mps 740 mmHg 78%
    15:00 +2°C° 0 mm 2 mps 740 mmHg 80%
    16:00 +2°C° 0 mm 2 mps 740 mmHg 83%
    17:00 +1°C° 0 mm 2 mps 741 mmHg 85%
    18:00 +1°C° 0 mm 2 mps 741 mmHg 87%
    19:00 -1°C° 0 mm 2 mps 741 mmHg 89%
    20:00 -1°C° 0 mm 2 mps 741 mmHg 91%
    21:00 -1°C° 0 mm 2 mps 742 mmHg 89%
    22:00 -1°C° 0 mm 2 mps 742 mmHg 87%
    23:00 -1°C° 0 mm 2 mps 742 mmHg 85%

    20 December, Friday

    Time Temperature Precipitation Wind Pressure Humidity
    00:00 -1°C° 0 mm 2 mps 742 mmHg 84%
    01:00 -1°C° 0 mm 2 mps 742 mmHg 82%
    02:00 -1°C° 0 mm 2 mps 742 mmHg 81%
    03:00 -1°C° 0 mm 2 mps 742 mmHg 82%
    04:00 0°C° 0 mm 1 mps 742 mmHg 84%
    05:00 0°C° 0 mm 1 mps 742 mmHg 86%
    06:00 0°C° 0 mm 1 mps 742 mmHg 87%
    07:00 -1°C° 0 mm 1 mps 743 mmHg 88%
    08:00 -1°C° 0 mm 1 mps 743 mmHg 89%
    09:00 0°C° 0 mm 1 mps 743 mmHg 87%
    10:00 0°C° 0 mm 1 mps 743 mmHg 85%
    11:00 +1°C° 0 mm 1 mps 744 mmHg 82%
    12:00 +1°C° 0 mm 1 mps 743 mmHg 82%
    13:00 +1°C° 0 mm 1 mps 743 mmHg 82%
    14:00 +1°C° 0 mm 1 mps 743 mmHg 82%
    15:00 0°C° 0 mm 1 mps 743 mmHg 84%
    16:00 0°C° 0 mm 1 mps 743 mmHg 87%
    17:00 -1°C° 0 mm 1 mps 743 mmHg 90%
    18:00 -1°C° 0 mm 1 mps 743 mmHg 90%
    19:00 -1°C° 0 mm 1 mps 743 mmHg 90%
    20:00 -1°C° 0 mm 1 mps 743 mmHg 90%
    21:00 -1°C° 0 mm 1 mps 743 mmHg 91%
    22:00 -1°C° 0 mm 1 mps 744 mmHg 92%
    23:00 -2°C° 0 mm 1 mps 744 mmHg 93%
    Show more